Weather History for KODO - March, 2014

Change the Weather History Date:

Friday, March 28, 2014

  Actual Average (KMAF) Record (KMAF)
Temperature  
Mean Temperature 68 °F 59 °F  
Max Temperature 79 °F 74 °F 92 °F (1963)
Min Temperature 57 °F 44 °F 19 °F (1931)
Degree Days  
Heating Degree Days 0 7  
Month to date heating degree days 287  
Since 1 July heating degree days 2524  
Cooling Degree Days 2 1  
Month to date cooling degree days 11  
Year to date cooling degree days 13  
Growing Degree Days 18 (Base 50)    
Moisture  
Dew Point 21 °F    
Average Humidity 19    
Maximum Humidity 35    
Minimum Humidity 10    
Precipitation  
Precipitation 0.00 in 0.02 in 0.69 in (2006)
Month to date precipitation 0.54  
Year to date precipitation 1.81  
Snow  
Snow 0.00 in - - ()
Month to date snowfall  
Since 1 July snowfall  
Snow Depth -    
Sea Level Pressure  
Sea Level Pressure 29.84 in    
Wind  
Wind Speed 10 mph (WNW)    
Max Wind Speed 20 mph    
Max Gust Speed 29 mph    
Visibility 10 miles    
Events      
T = Trace of Precipitation, MM = Missing Value Source: NWS Daily Summary

Daily Weather History Graph

Daily Weather History Graph

Search for Another Location

Airport or City:

Trip Planner

Search our weather history database for the weather conditions in past years. The results will help you decide how hot, cold, wet, or windy it might be!

Date:

Astronomy

Mar. 28, 2014 Rise Set
Actual Time 7:42 AM CDT 8:06 PM CDT
Civil Twilight 7:18 AM CDT 8:31 PM CDT
Nautical Twilight 6:49 AM CDT 8:59 PM CDT
Astronomical Twilight 6:20 AM CDT 9:28 PM CDT
Moon 6:07 AM CDT (3/28) 6:11 PM CDT (3/28)
Length of Visible Light 13h 12m
Length of Day
12h 23m
Waning Crescent, 6% of the Moon is Illuminated
Mar 28
Waning Crescent
Mar 30
New
Apr 7
First Quarter
Apr 15
Full
Apr 22
Last Quarter

Hourly Weather History & Observations

Time (CDT) Temp. Dew Point Humidity Pressure Visibility Wind Dir Wind Speed Gust Speed Precip Events Conditions
12:53 AM 57.0 °F 21.9 °F 26% 29.71 in 10.0 mi West 6.9 mph - N/A   Clear
1:53 AM 59.0 °F 19.9 °F 22% 29.73 in 10.0 mi South 6.9 mph - N/A   Clear
2:53 AM 60.1 °F 19.9 °F 21% 29.73 in 10.0 mi South 4.6 mph - N/A   Clear
3:53 AM 57.9 °F 19.9 °F 23% 29.73 in 10.0 mi SW 3.5 mph - N/A   Clear
4:53 AM 60.1 °F 19.0 °F 20% 29.72 in 10.0 mi WSW 6.9 mph - N/A   Clear
5:53 AM 57.9 °F 19.9 °F 23% 29.73 in 10.0 mi West 8.1 mph - N/A   Clear
6:53 AM 57.9 °F 19.9 °F 23% 29.75 in 10.0 mi WNW 4.6 mph - N/A   Clear
7:53 AM 61.0 °F 23.0 °F 23% 29.77 in 10.0 mi WNW 15.0 mph - N/A   Clear
8:53 AM 63.0 °F 24.1 °F 23% 29.82 in 10.0 mi WNW 10.4 mph - N/A   Clear
9:53 AM 68.0 °F 21.9 °F 17% 29.84 in 10.0 mi WNW 10.4 mph - N/A   Clear
10:53 AM 72.0 °F 21.9 °F 15% 29.86 in 10.0 mi WNW 12.7 mph 23.0 mph N/A   Clear
11:53 AM 73.9 °F 26.1 °F 17% 29.86 in 10.0 mi WNW 17.3 mph 21.9 mph N/A   Clear
12:53 PM 75.0 °F 24.1 °F 15% 29.87 in 10.0 mi West 19.6 mph 28.8 mph N/A   Clear
1:53 PM 75.9 °F 23.0 °F 14% 29.86 in 10.0 mi WNW 19.6 mph 25.3 mph N/A   Clear
2:53 PM 77.0 °F 21.9 °F 13% 29.84 in 10.0 mi WNW 16.1 mph 23.0 mph N/A   Clear
3:53 PM 77.0 °F 21.0 °F 12% 29.84 in 10.0 mi West 13.8 mph 21.9 mph N/A   Clear
4:53 PM 78.1 °F 19.0 °F 11% 29.84 in 10.0 mi WNW 16.1 mph 28.8 mph N/A   Clear
5:53 PM 77.0 °F 16.0 °F 10% 29.85 in 10.0 mi WNW 16.1 mph 26.5 mph N/A   Clear
6:53 PM 75.9 °F 15.1 °F 10% 29.87 in 10.0 mi NW 13.8 mph 21.9 mph N/A   Clear
7:53 PM 73.0 °F 16.0 °F 11% 29.90 in 10.0 mi NW 9.2 mph - N/A   Clear
8:53 PM 68.0 °F 18.0 °F 15% 29.92 in 10.0 mi NW 5.8 mph - N/A   Clear
9:53 PM 63.0 °F 19.0 °F 18% 29.96 in 10.0 mi North 5.8 mph - N/A   Clear
10:53 PM 60.1 °F 19.0 °F 20% 29.98 in 10.0 mi North 5.8 mph - N/A   Clear
11:45 PM 59.0 °F 28.0 °F 31% 30.11 in 10.0 mi ENE 13.8 mph - N/A   Clear
11:53 PM 57.9 °F 30.0 °F 35% 30.01 in 10.0 mi ENE 13.8 mph - N/A   Clear